Weather History for Cross City, FL

Change the Weather History Date:

Friday, July 26, 2013

  Actual Average Record
Temperature  
Mean Temperature 83 °F 82 °F  
Max Temperature 92 °F 91 °F 95 °F (2005)
Min Temperature 73 °F 72 °F 70 °F (2000)
Degree Days  
Heating Degree Days 0 0  
Month to date heating degree days 0 0  
Since 1 June heating degree days 0 0  
Since 1 July heating degree days 0 0  
Cooling Degree Days 18 17  
Month to date cooling degree days 402 426  
Year to date cooling degree days 1414 1352  
Since 1 June cooling degree days 879 873  
Growing Degree Days 32 (Base 50)    
Moisture  
Dew Point 75 °F    
Average Humidity 83    
Maximum Humidity 100    
Minimum Humidity 56    
Precipitation  
Precipitation 0.65 in 0.21 in 0.65 in (2013)
Month to date precipitation 20.27 4.65  
Year to date precipitation 42.16 26.91  
Sea Level Pressure  
Sea Level Pressure 29.99 in    
Wind  
Wind Speed 2 mph (WNW)    
Max Wind Speed 22 mph    
Max Gust Speed 25 mph    
T = Trace of Precipitation, MM = Missing Value Source: NWS Daily Summary

Daily Weather History Graph

Daily Weather History Graph

Search for Another Location

Airport:

Trip Planner

Search our weather history database for the weather conditions in past years. The results will help you decide how hot, cold, wet, or windy it might be!

Date:

Astronomy

Jul. 26, 2013 Rise Set
Actual Time 6:48 AM EDT 8:28 PM EDT
Civil Twilight 6:22 AM EDT 8:54 PM EDT
Nautical Twilight 5:51 AM EDT 9:26 PM EDT
Astronomical Twilight 5:18 AM EDT 9:59 PM EDT
Moon 11:09 PM EDT (7/26) 10:58 AM EDT (7/26)
Length of Visible Light 14h 32m
Length of Day
13h 40m
Waning Gibbous, 80% of the Moon is Illuminated
Jul 26
Waning Gibbous
Jul 29
Last Quarter
Aug 6
New
Aug 14
First Quarter
Aug 20
Full

Hourly Weather History & Observations

Time (EDT) Temp. Heat Index Dew Point Humidity Pressure Visibility Wind Dir Wind Speed Gust Speed Precip Events Conditions
12:53 AM 75.9 °F - 73.9 °F 94% 29.98 in - Calm Calm - 0.01 in   Unknown
1:53 AM 75.0 °F - 73.0 °F 94% 29.97 in - Calm Calm - N/A   Unknown
2:53 AM 73.9 °F - 72.0 °F 93% 29.96 in - Calm Calm - 0.01 in   Unknown
3:53 AM 73.9 °F - 72.0 °F 93% 29.96 in - Calm Calm - N/A   Unknown
4:53 AM 73.9 °F - 72.0 °F 93% 29.96 in - Calm Calm - N/A   Unknown
5:53 AM 73.0 °F - 72.0 °F 96% 29.97 in - Calm Calm - 0.01 in   Unknown
6:53 AM 73.0 °F - 71.1 °F 93% 29.98 in - Calm Calm - 0.01 in   Unknown
7:53 AM 75.9 °F - 75.0 °F 97% 30.00 in - Calm Calm - 0.01 in   Unknown
8:53 AM 81.0 °F 87.3 °F 75.9 °F 85% 30.01 in - NNE 4.6 mph - N/A   Unknown
9:53 AM 84.0 °F 92.6 °F 75.9 °F 76% 30.02 in - Calm Calm - N/A   Unknown
10:53 AM 88.0 °F 100.2 °F 77.0 °F 70% 30.01 in - Calm Calm - N/A   Unknown
11:53 AM 89.1 °F 98.0 °F 73.9 °F 61% 30.02 in - NNE 3.5 mph - N/A   Unknown
12:53 PM 91.0 °F 100.4 °F 73.9 °F 57% 30.01 in - NNE 4.6 mph - N/A   Unknown
1:53 PM 88.0 °F 97.5 °F 75.0 °F 65% 30.00 in - SW 10.4 mph - N/A   Unknown
2:53 PM 90.0 °F 102.5 °F 77.0 °F 65% 29.99 in - WSW 12.7 mph - N/A   Unknown
3:53 PM 75.9 °F - 72.0 °F 87% 29.99 in - West 10.4 mph - 0.58 in   Unknown
4:53 PM 80.1 °F 85.4 °F 75.9 °F 87% 29.98 in - WNW 4.6 mph - N/A   Unknown
5:53 PM 82.0 °F 90.2 °F 77.0 °F 85% 29.97 in - WSW 3.5 mph - N/A   Unknown
6:53 PM 82.0 °F 87.9 °F 73.9 °F 76% 29.96 in - Calm Calm - N/A   Unknown
7:53 PM 84.0 °F 93.7 °F 77.0 °F 79% 29.96 in - West 3.5 mph - 0.01 in   Unknown
8:53 PM 81.0 °F 87.9 °F 77.0 °F 88% 29.97 in - Calm Calm - N/A   Unknown
9:53 PM 78.1 °F - 77.0 °F 96% 29.99 in - Calm Calm - 0.01 in   Unknown
10:53 PM 79.0 °F - 77.0 °F 94% 30.00 in - Calm Calm - N/A   Unknown
11:53 PM 77.0 °F - 75.0 °F 94% 30.01 in - Calm Calm - N/A   Unknown